sat.trackr.live / text

‹ back to catalog

STARLINK-3593

NORAD 51896 · 2022-022AW

PAYLOAD ACTIVE UNKNOWN

§ Identity

Operator
Country
US
Launch date
2022-03-03
Launch site
AFETR
Launch vehicle
Mass (kg)
RCS (m²)

Purposes: comms

External: N2YO · Heavens-Above · Gunter

§ Orbital elements

Epoch: 2026-05-25T01:31:48.552096Z

Period
95.44 min
Inclination
53.2159°
Eccentricity
0.0001390
Mean motion
15.08849802 rev/d
Perigee alt
538.8 km
Apogee alt
540.7 km
Semi-major
6,917.9 km
B*
-7.1682e-5
RAAN
16.4817°
Arg perigee
71.5966°
Mean anomaly
288.5177°
Rev number
23,482

§ Raw data

STARLINK-35931 51896U 22022AW  26145.06375639 -.00001429  00000+0 -71682-4 0  99992 51896  53.2159  16.4817 0001390  71.5966 288.5177 15.08849802234822

JSON: /api/v1/satellites/51896 · /tle

For live sub-satellite position, see the globe view (requires WebGL).

§ Visibility from observer

Set your observer location to see the next 7 days of passes ≥ 10°. The values pass through the URL so the page stays shareable.

No JS? Fill the form by hand. The geolocation button needs JavaScript.